Home > Weather > Stralsund > Past weeks

Flag for Germany Weather for the Past 2 Weeks in Stralsund, Mecklenburg-Western Pomerania, Germany

Now
39 °F

Partly sunny.


Feels Like: 32 °F
Forecast: 34 / 38 °F
Wind: 13 mph from West

Location: Laage

Current Time: Feb 11, 2016 at 11:49:39 AM

Latest Report: Feb 11, 2016 at 11:20 AM


Visibility: N/A

Pressure: 29.45 "Hg

Humidity: 93%

Dew point: 37 °F

Location of StralsundLocation

Historic Weather in Stralsund — Graph

°F

Stralsund Temperature Yesterday

Maximum temperature yesterday: 46 °F (at 12:20 AM)
Minimum temperature yesterday: 36 °F (at 3:20 AM)
Average temperature yesterday: 39 °F

High & Low Weather Summary for the Past Weeks

 TemperatureHumidityPressure
High54 °F (Feb 7, 1:20 PM)100% (Jan 30, 5:59 PM)30.18 "Hg (Jan 30, 5:59 PM)
Low32 °F (Feb 5, 2:20 AM)57% (Feb 2, 4:20 PM)28.77 "Hg (Feb 10, 12:20 AM)
Average42 °F84%29.65 "Hg
* Reported Jan 27 10:20 AM — Feb 11 10:20 AM, Stralsund, Weather by CustomWeather, © 2016

Note: Actual official high and low records may vary slightly from our data, if they occured in-between our weather recording intervals... More about our weather records

Advertising

Stralsund Weather History for the Previous 24 Hours

 ConditionsComfort  
Time TempWeatherWind HumidityBarometerVisibility
10:20 AM
Thu, Feb 11
39 °FPartly sunny.8 mph93%29.45 "HgN/A
9:53 AM39 °FPartly sunny.14 mph93%29.42 "Hg4 mi
9:20 AM39 °FDrizzle. Broken clouds.7 mph93%29.42 "Hg4 mi
8:47 AM37 °FDrizzle. Fog.12 mph93%29.42 "Hg3 mi
8:20 AM37 °FDrizzle. Partly sunny.13 mph93%29.42 "Hg4 mi
7:59 AM39 °FPartly sunny.12 mph93%29.39 "HgN/A
7:20 AM39 °FPassing clouds.9 mph100%29.39 "Hg4 mi
6:20 AM39 °FFog.13 mph100%29.36 "Hg3 mi
5:49 AM39 °FDrizzle. Low clouds.10 mph100%29.36 "Hg2 mi
5:20 AM39 °FLow clouds.7 mph93%29.36 "Hg4 mi
5:01 AM39 °FPassing clouds.10 mph93%29.36 "Hg4 mi
4:20 AM39 °FRain. Passing clouds.13 mph100%29.33 "Hg4 mi
4:00 AM39 °FRain. Fog.7 mph100%29.33 "Hg2 mi
3:20 AM39 °FFog.7 mph100%29.30 "Hg3 mi
2:20 AM39 °FFog.3 mph100%29.30 "Hg2 mi
2:03 AM39 °FDrizzle. Fog.5 mph93%29.30 "Hg2 mi
1:20 AM39 °FDrizzle. Fog.3 mph93%29.30 "Hg2 mi
12:20 AM39 °FSprinkles. Passing clouds.7 mph93%29.30 "Hg4 mi
11:20 PM
Wed, Feb 10
39 °FOvercast.7 mph87%29.30 "HgN/A
10:20 PM39 °FPassing clouds.5 mph87%29.27 "HgN/A
9:20 PM39 °FPassing clouds.5 mph87%29.30 "HgN/A
8:20 PM37 °FPassing clouds.5 mph93%29.27 "HgN/A
7:20 PM37 °FPassing clouds.5 mph93%29.27 "HgN/A
6:20 PM37 °FSprinkles. Partly cloudy.5 mph93%29.27 "HgN/A
5:20 PM39 °FPassing clouds.3 mph87%29.24 "HgN/A
4:20 PM39 °FPartly sunny.5 mph87%29.24 "HgN/A
3:20 PM39 °FSprinkles. Partly sunny.7 mph81%29.24 "HgN/A
2:20 PM41 °FPartly sunny.7 mph70%29.21 "HgN/A
1:20 PM41 °FPartly sunny.10 mph70%29.21 "HgN/A
12:20 PM39 °FPartly sunny.10 mph75%29.24 "HgN/A
11:20 AM39 °FPartly sunny.13 mph75%29.21 "HgN/A
Weather by CustomWeather, © 2016

See weather overviewHow to use our weather pages